Yeovilton, United Kingdom

12:08 PM BST on April 29, 2017 (GMT +0100)
Yeovil Radar Navy

Weather History for EGDY - March, 2013

Change the Weather History Date:

Wednesday, March 27, 2013

  Actual Average Record
Temperature  
Mean Temperature 35 °F -  
Max Temperature 39 °F 54 °F 66 °F (2012)
Min Temperature 30 °F 38 °F 29 °F (2015)
Degree Days  
Heating Degree Days 30    
Moisture  
Dew Point 27 °F    
Average Humidity 70    
Maximum Humidity 81    
Minimum Humidity 45    
Precipitation  
Precipitation 0.00 in - - ()
Sea Level Pressure  
Sea Level Pressure 29.87 in    
Wind  
Wind Speed 11 mph ()    
Max Wind Speed 16 mph    
Max Gust Speed -    
Visibility 5.9 miles    
Events Rain , Snow    
Averages and records for this station are not official NWS values.
T = Trace of Precipitation, MM = Missing Value Source: Averaged Metar Reports

Daily Weather History Graph

Daily Weather History Graph

Search for Another Location

Airport or City:

Trip Planner

Search our weather history database for the weather conditions in past years. The results will help you decide how hot, cold, wet, or windy it might be!

Date:

Astronomy

Mar. 27, 2013 Rise Set
Actual Time 5:57 AM GMT 6:35 PM GMT
Civil Twilight 5:24 AM GMT 7:08 PM GMT
Nautical Twilight 4:44 AM GMT 7:48 PM GMT
Astronomical Twilight 4:02 AM GMT 8:30 PM GMT
Moon 7:10 PM GMT (3/27) 5:36 AM GMT (3/27)
Length of Visible Light 13h 44m
Length of Day
12h 37m
Full, 100% of the Moon is Illuminated
Mar 27
Full
Apr 3
Last Quarter
Apr 10
New
Apr 18
First Quarter
Apr 25
Full

Hourly Weather History & Observations

Time (GMT) Temp. Windchill Dew Point Humidity Pressure Visibility Wind Dir Wind Speed Gust Speed Precip Events Conditions
12:50 AM 33.8 °F 24.3 °F 24.8 °F 70% 29.86 in 6.2 mi NE 13.8 mph - N/A   Overcast
1:50 AM 32.0 °F 22.5 °F 24.8 °F 75% 29.86 in 6.2 mi NNE 12.7 mph - N/A   Overcast
2:50 AM 33 °F - 26 °F 65% 29.86 in 7 mi NE 15.0 mph - -   Overcast
2:50 AM 32.0 °F 21.6 °F 24.8 °F 75% 29.83 in 6.2 mi NE 15.0 mph - N/A   Overcast
3:50 AM 32.0 °F 22.5 °F 26.6 °F 80% 29.83 in 6.2 mi NE 12.7 mph - N/A   Overcast
4:50 AM 32.0 °F 22.1 °F 26.6 °F 80% 29.83 in 6.2 mi NE 13.8 mph - N/A   Overcast
5:50 AM 32 °F - 27 °F 74% 29.86 in 6 mi NE 10.4 mph - -   Overcast
5:50 AM 32.0 °F 23.6 °F 26.6 °F 80% 29.83 in 6.2 mi NE 10.4 mph - N/A   Overcast
6:50 AM 32.0 °F 24.2 °F 26.6 °F 80% 29.86 in - NE 9.2 mph - N/A   Clear
7:50 AM 33.8 °F 25.3 °F 26.6 °F 75% 29.86 in 6.2 mi NE 11.5 mph - N/A   Mostly Cloudy
8:50 AM 35 °F - 28 °F 67% 29.87 in 9 mi NE 10.4 mph - - Snow Light Snow
8:50 AM 35.6 °F 28.0 °F 28.4 °F 75% 29.86 in 6.2 mi NE 10.4 mph - N/A Snow Light Snow
9:50 AM 37.4 °F 28.2 °F 24.8 °F 60% 29.86 in 6.2 mi ENE 16.1 mph - N/A   Scattered Clouds
10:50 AM 39.2 °F 31.6 °F 23.0 °F 52% 29.86 in 6.2 mi ENE 12.7 mph - N/A   Mostly Cloudy
11:50 AM 38 °F - 24 °F 45% 29.87 in 9 mi NE 13.8 mph - -   Partly Cloudy
11:50 AM 37.4 °F 28.9 °F 24.8 °F 60% 29.86 in 6.2 mi NE 13.8 mph - N/A   Scattered Clouds
12:50 PM 39.2 °F 32.0 °F 23.0 °F 52% 29.86 in 6.2 mi NE 11.5 mph - N/A   Mostly Cloudy
1:50 PM 39.2 °F 31.2 °F 24.8 °F 56% 29.83 in 6.2 mi NNE 13.8 mph - N/A   Mostly Cloudy
2:50 PM 39 °F - 26 °F 48% 29.86 in 7 mi NNE 12.7 mph - - Snow Light Snow
2:50 PM 39.2 °F 31.6 °F 26.6 °F 61% 29.83 in 6.2 mi NNE 12.7 mph - N/A   Unknown
3:50 PM 37.4 °F 28.9 °F 28.4 °F 70% 29.86 in 6.2 mi NE 13.8 mph - N/A   Mostly Cloudy
4:50 PM 37.4 °F 30.3 °F 28.4 °F 70% 29.86 in 6.2 mi NNE 10.4 mph - N/A   Overcast
5:50 PM 36 °F - 29 °F 68% 29.89 in 4 mi NE 9.2 mph - - Snow Light Snow
5:50 PM 35.6 °F 28.6 °F 30.2 °F 81% 29.86 in 4.3 mi NE 9.2 mph - N/A Rain , Snow Light Rain
6:05 PM 35.6 °F 28.0 °F 28.4 °F 75% 29.86 in 2.5 mi NE 10.4 mph - N/A Snow Light Snow
6:50 PM 35.6 °F 29.2 °F 30.2 °F 81% 29.89 in 2.2 mi NNE 8.1 mph - N/A Snow Light Snow
7:20 PM 35.6 °F 29.2 °F 30.2 °F 81% 29.89 in - NNE 8.1 mph - N/A Snow Light Snow
7:50 PM 35.6 °F 29.9 °F 28.4 °F 75% 29.89 in 3.1 mi NNE 6.9 mph - N/A Snow Light Snow
8:50 PM 35 °F - 27 °F 61% 29.91 in 5 mi NE 8.1 mph - - Snow Light Snow
8:50 PM 33.8 °F 27.0 °F 26.6 °F 75% 29.89 in 5.0 mi NE 8.1 mph - N/A Snow Light Snow
9:50 PM 33.8 °F 26.4 °F 28.4 °F 81% 29.89 in 6.2 mi NE 9.2 mph - N/A   Overcast
10:50 PM 32.0 °F 26.4 °F 24.8 °F 75% 29.89 in 6.2 mi NNE 5.8 mph - N/A   Mostly Cloudy
11:50 PM 31 °F - 24 °F 68% 29.91 in 7 mi NNE 5.8 mph - -   Partly Cloudy
11:50 PM 30.2 °F 24.3 °F 24.8 °F 80% 29.89 in - NNE 5.8 mph - N/A   Clear